FW7817 Weather Reports


Display with metric or nautical units.
time (UTC)temp
F
wind
direction
speed
MPH
gust
MPH
rain 1hr
in
rain 24hr
in
rain mn
in
humidity
%
barometer
mb
20260504150837 75 258 2.0 9.0 0.00 0.00 0.00 52 1004.4
20260504150332 75 279 2.0 11.0 0.00 0.00 0.00 53 1004.4
20260504141232 71 238 2.0 11.0 0.00 0.00 0.00 57 1004.6
20260504130624 61 200 1.0 3.0 0.00 0.00 0.00 73 1004.2
20260504130124 60 200 1.0 3.0 0.00 0.00 0.00 74 1004.1
20260504120104 55 227 0.0 0.0 0.00 0.00 0.00 80 1004.3
20260504110556 55 227 0.0 0.0 0.00 0.00 0.00 80 1004.6
20260504100552 56 227 0.0 0.0 0.00 0.00 0.00 74 1005.2
20260504081506 59 246 0.0 2.0 0.00 0.00 0.00 67 1005.6
20260504081000 59 246 0.0 2.0 0.00 0.00 0.00 67 1005.7
20260504080453 59 246 0.0 1.0 0.00 0.00 0.00 66 1005.5
20260504070342 59 128 0.0 2.0 0.00 0.00 0.00 67 1006.1
20260504050659 63 194 0.0 0.0 0.00 0.00 0.00 65 1007.7
20260504050156 64 194 1.0 3.0 0.00 0.00 0.00 64 1007.7
20260504045156 64 193 0.0 2.0 0.00 0.00 0.00 64 1007.8
20260504044655 64 162 0.0 2.0 0.00 0.00 0.00 63 1007.8
20260504044157 65 162 0.0 2.0 0.00 0.00 0.00 63 1007.8
20260504043659 65 162 0.0 2.0 0.00 0.00 0.00 62 1008.0
20260504043158 65 162 1.0 4.0 0.00 0.00 0.00 61 1008.0
20260504042155 66 309 0.0 1.0 0.00 0.00 0.00 61 1008.2
20260504041154 66 309 0.0 2.0 0.00 0.00 0.00 59 1008.3
20260504040655 66 308 1.0 3.0 0.00 0.00 0.00 60 1008.4
20260504040155 67 309 1.0 3.0 0.00 0.00 0.00 59 1008.3
20260504035154 67 91 0.0 2.0 0.00 0.00 0.00 56 1008.4
20260504034653 67 91 0.0 2.0 0.00 0.00 0.00 56 1008.5
20260504034147 67 91 0.0 2.0 0.00 0.00 0.00 56 1008.4
20260504033642 68 91 0.0 2.0 0.00 0.00 0.00 56 1008.4
20260504033135 68 91 0.0 0.0 0.00 0.00 0.00 55 1008.3
20260504031619 68 91 0.0 2.0 0.00 0.00 0.00 55 1008.3
20260504031112 69 91 0.0 2.0 0.00 0.00 0.00 54 1008.3
20260504030606 69 91 0.0 1.0 0.00 0.00 0.00 54 1008.3
20260504025554 69 91 0.0 1.0 0.00 0.00 0.00 54 1008.3
20260504025049 69 91 0.0 2.0 0.00 0.00 0.00 54 1008.2
20260504024542 69 91 0.0 2.0 0.00 0.00 0.00 54 1008.1
20260504024036 70 91 0.0 2.0 0.00 0.00 0.00 54 1008.2
20260504023531 70 91 0.0 2.0 0.00 0.00 0.00 53 1008.1
20260504023024 70 91 0.0 2.0 0.00 0.00 0.00 53 1008.2
20260504022519 70 91 0.0 3.0 0.00 0.00 0.00 52 1008.1
20260504022012 71 91 1.0 3.0 0.00 0.00 0.00 52 1008.2
20260504021000 71 22 0.0 1.0 0.00 0.00 0.00 50 1008.5
20260504020455 71 22 0.0 1.0 0.00 0.00 0.00 49 1008.3
20260504015948 72 22 0.0 1.0 0.00 0.00 0.00 49 1008.2
20260504014936 73 22 0.0 1.0 0.00 0.00 0.00 47 1008.1
20260504014430 73 22 0.0 1.0 0.00 0.00 0.00 47 1008.1
20260504013924 73 22 0.0 0.0 0.00 0.00 0.00 46 1008.2
20260504013417 74 22 0.0 0.0 0.00 0.00 0.00 46 1008.1
20260504012913 74 22 0.0 0.0 0.00 0.00 0.00 46 1008.3
20260504012405 74 22 0.0 1.0 0.00 0.00 0.00 45 1008.2
20260504011900 75 22 0.0 1.0 0.00 0.00 0.00 45 1008.2
20260504011353 75 22 0.0 1.0 0.00 0.00 0.00 45 1008.3
20260504010849 76 22 0.0 0.0 0.00 0.00 0.00 44 1008.3
20260504005836 76 22 0.0 0.0 0.00 0.00 0.00 43 1008.3
20260504005330 76 22 0.0 0.0 0.00 0.00 0.00 43 1008.2
20260504004318 77 22 0.0 1.0 0.00 0.00 0.00 42 1008.3
20260504003812 78 22 0.0 1.0 0.00 0.00 0.00 42 1008.3
20260504003306 78 22 0.0 1.0 0.00 0.00 0.00 42 1008.3
20260504002254 78 22 0.0 2.0 0.00 0.00 0.00 41 1008.3
20260504001748 79 22 0.0 1.0 0.00 0.00 0.00 40 1008.4
20260504001243 79 22 0.0 2.0 0.00 0.00 0.00 40 1008.5
20260504000230 80 22 0.0 2.0 0.00 0.00 0.00 39 1008.6
20260503235724 80 22 0.0 1.0 0.00 0.00 0.00 39 1008.6
20260503235218 80 22 0.0 1.0 0.00 0.00 0.00 39 1008.7
20260503234712 80 22 0.0 3.0 0.00 0.00 0.00 39 1008.8
20260503234207 81 22 0.0 3.0 0.00 0.00 0.00 37 1008.7
20260503233700 81 85 0.0 1.0 0.00 0.00 0.00 35 1008.7
20260503233155 82 85 0.0 1.0 0.00 0.00 0.00 36 1008.9
20260503232648 82 85 0.0 1.0 0.00 0.00 0.00 36 1009.0
20260503232143 82 85 0.0 1.0 0.00 0.00 0.00 35 1009.0
20260503231638 82 85 0.0 2.0 0.00 0.00 0.00 35 1009.0
20260503231129 83 85 1.0 2.0 0.00 0.00 0.00 34 1009.0
20260503230117 83 338 0.0 2.0 0.00 0.00 0.00 35 1009.1
20260503225106 83 338 0.0 2.0 0.00 0.00 0.00 32 1009.2
20260503224600 83 306 1.0 3.0 0.00 0.00 0.00 33 1009.2
20260503224054 83 306 1.0 4.0 0.00 0.00 0.00 33 1009.4
20260503223548 84 305 1.0 4.0 0.00 0.00 0.00 33 1009.4
20260503223042 84 296 1.0 6.0 0.00 0.00 0.00 34 1009.4
20260503222536 84 296 1.0 6.0 0.00 0.00 0.00 36 1009.4
20260503222029 84 304 1.0 6.0 0.00 0.00 0.00 36 1009.5
20260503221524 84 254 2.0 6.0 0.00 0.00 0.00 37 1009.6
20260503221022 84 317 1.0 6.0 0.00 0.00 0.00 34 1009.5
20260503220522 84 265 1.0 3.0 0.00 0.00 0.00 37 1009.6
20260503220021 84 296 2.0 5.0 0.00 0.00 0.00 33 1009.7
20260503215521 84 224 2.0 6.0 0.00 0.00 0.00 31 1009.8
20260503215021 84 305 2.0 6.0 0.00 0.00 0.00 33 1009.8
20260503214518 84 311 1.0 6.0 0.00 0.00 0.00 36 1009.8
20260503214017 84 302 2.0 4.0 0.00 0.00 0.00 33 1010.0
20260503213517 84 320 3.0 7.0 0.00 0.00 0.00 35 1010.0
20260503213015 84 304 2.0 7.0 0.00 0.00 0.00 36 1010.0
20260503212514 84 299 2.0 6.0 0.00 0.00 0.00 37 1010.1
20260503212014 84 238 2.0 6.0 0.00 0.00 0.00 34 1010.3
20260503211513 84 298 2.0 8.0 0.00 0.00 0.00 34 1010.3
20260503211011 84 298 2.0 8.0 0.00 0.00 0.00 35 1010.4
20260503210511 84 293 2.0 6.0 0.00 0.00 0.00 35 1010.4
20260503210012 84 294 2.0 7.0 0.00 0.00 0.00 34 1010.5
20260503205510 84 300 2.0 7.0 0.00 0.00 0.00 32 1010.5
20260503205011 85 287 2.0 5.0 0.00 0.00 0.00 36 1010.6
20260503204508 85 228 2.0 14.0 0.00 0.00 0.00 42 1010.6
20260503204008 84 213 3.0 14.0 0.00 0.00 0.00 37 1010.7
20260503203508 84 307 2.0 7.0 0.00 0.00 0.00 36 1010.8
20260503203009 84 297 2.0 7.0 0.00 0.00 0.00 36 1011.0
20260503202508 84 309 2.0 7.0 0.00 0.00 0.00 38 1011.1
20260503202008 84 278 3.0 9.0 0.00 0.00 0.00 38 1011.2
20260503201507 84 297 3.0 9.0 0.00 0.00 0.00 37 1011.5
20260503200507 84 301 2.0 7.0 0.00 0.00 0.00 37 1011.5
20260503200004 84 286 2.0 7.0 0.00 0.00 0.00 38 1011.6
20260503194504 84 313 2.0 7.0 0.00 0.00 0.00 38 1011.8
20260503194003 84 234 2.0 7.0 0.00 0.00 0.00 38 1011.8
20260503193507 83 314 2.0 7.0 0.00 0.00 0.00 40 1011.8
20260503193006 83 9 2.0 7.0 0.00 0.00 0.00 37 1011.8
20260503192506 83 302 2.0 5.0 0.00 0.00 0.00 38 1011.7
20260503192007 83 240 2.0 5.0 0.00 0.00 0.00 38 1011.9
20260503191500 83 263 2.0 6.0 0.00 0.00 0.00 40 1011.8
20260503190954 83 254 2.0 8.0 0.00 0.00 0.00 41 1011.9
20260503190454 82 217 3.0 8.0 0.00 0.00 0.00 36 1011.8
20260503185955 82 290 2.0 8.0 0.00 0.00 0.00 37 1012.0
20260503184953 82 275 3.0 12.0 0.00 0.00 0.00 42 1012.1
20260503184453 82 244 2.0 8.0 0.00 0.00 0.00 41 1012.2
20260503183450 82 277 3.0 10.0 0.00 0.00 0.00 40 1012.4
20260503182951 82 223 3.0 10.0 0.00 0.00 0.00 40 1012.5
20260503182449 82 246 3.0 9.0 0.00 0.00 0.00 37 1012.6
20260503181947 82 269 2.0 9.0 0.00 0.00 0.00 38 1012.6
20260503180949 81 350 2.0 9.0 0.00 0.00 0.00 42 1012.9
20260503180447 81 151 3.0 9.0 0.00 0.00 0.00 40 1012.8
20260503175948 81 267 3.0 9.0 0.00 0.00 0.00 41 1012.8
20260503175448 81 209 3.0 10.0 0.00 0.00 0.00 41 1012.8
20260503174445 81 227 2.0 7.0 0.00 0.00 0.00 41 1013.2
20260503173939 80 242 2.0 8.0 0.00 0.00 0.00 40 1013.2
20260503173432 80 226 2.0 8.0 0.00 0.00 0.00 41 1013.2
20260503172927 79 252 2.0 10.0 0.00 0.00 0.00 48 1013.2
20260503172421 79 259 2.0 10.0 0.00 0.00 0.00 44 1013.3
20260503171915 79 244 2.0 8.0 0.00 0.00 0.00 42 1013.4
20260503170902 78 227 1.0 6.0 0.00 0.00 0.00 44 1013.4
20260503170357 78 241 0.0 0.0 0.00 0.00 0.00 42 1013.6